Hourly Weather Roundup
Issued by NWS Central Illinois

Home | Current Version | Previous Version | Text Only | Print | Product List | Glossary On
Versions: 1 2 3 4 5 6 7 8 9 10 11 12 13 14 15 16 17 18 19 20 21 22 23 24 25 26 27 28 29 30 31 32 33 34 35 36 37 38 39 40 41 42 43 44 45 46 47 48 49 50
000
NZUS43 KILX 190510
HWRILX

Area Weather Roundup
National Weather Service Lincoln IL
1100 PM CST THU JAN 18 2018

NOTE:  "FAIR" indicates few or no clouds below 12,000 feet, with
       no sigificant weather and/or obstructions to visibility.


CITY           SKY/WX    TMP DP  RH WIND       PRES   REMARKS
Bloomington    FAIR      27  22  81 SW18      30.06R WCI  14
Champaign      FAIR      23  17  78 SW16      30.10S WCI  10
Danville       FAIR      24  14  67 SW14G21   30.08S WCI  11
Decatur        FAIR      26  20  77 SW16      30.11S WCI  14
Effingham      FAIR      26  18  71 S9        30.19F WCI  17
Flora          FAIR      26  18  71 S12       30.21S WCI  15
Galesburg      FAIR      29  22  76 S10       30.02F WCI  19
Jacksonville   CLOUDY    33  19  55 S8        30.09S WCI  26
Lacon          FAIR      30  19  62 SW7       30.03F WCI  23
Lawrenceville  FAIR      22  13  68 SW13      30.22F WCI  10
Litchfield     CLOUDY    25  20  82 S10       30.13F WCI  15
$$


CITY           SKY/WX    TMP DP  RH WIND       PRES   REMARKS
Lincoln        FAIR      28  23  82 S3        30.09S
Macomb         CLOUDY    32  21  64 SW13      30.05F WCI  22
Mattoon        FAIR      24  15  68 S13       30.12F WCI  12
Mt Carmel AP   FAIR      24  13  63 SW13      30.22S WCI  12
Olney-Noble AP FAIR      24  12  61 S6        30.22S WCI  17
Paris AP       FAIR      24  16  70 S18       30.14S WCI  10
Peoria         FAIR      26  17  68 SW10      30.05F WCI  16
Pontiac        FAIR      27  22  82 SW9       30.05F WCI  18
Rantoul        FAIR      28  21  75 SW13      30.09S WCI  17
Robinson       FAIR      23  13  65 SW8       30.22S WCI  14
Springfield    FAIR      29  21  72 S10       30.10S WCI  20
Taylorville    FAIR      26  20  77 S12       30.13R WCI  16
$$

...REGIONAL REPORTS...


CITY           SKY/WX    TMP DP  RH WIND       PRES   REMARKS
Chicago O`Hare FAIR      30  19  63 SW13      29.97F WCI  20
Kankakee       FAIR     N/A N/A N/A SW12      30.07S
Moline         FAIR      31  20  63 SW7       29.98F WCI  24
Mount Sterling CLOUDY    35  20  53 SW16      30.05F WCI  25
Mount Vernon   FAIR      23  18  81 SW10      30.22S WCI  12
Pittsfield     CLOUDY    36  21  55 SW12      30.08F WCI  27
Quincy         CLOUDY    33  20  58 SW13      30.05F WCI  24
Rockford       FAIR      31  19  61 SW12G22   29.96F WCI  22
$$


CITY           SKY/WX    TMP DP  RH WIND       PRES   REMARKS
Burlington     CLOUDY    30  19  63 SW13      30.00F WCI  20
Cedar Rapids   FAIR      27  20  75 S9        29.93F WCI  18
Des Moines     CLOUDY    30  21  69 S7        29.91F WCI  23
Kirksville     CLOUDY    32  22  66 SW14      30.02F WCI  22
Ottumwa        CLOUDY    33  20  58 SW10      29.96S WCI  25
St Louis       PTCLDY    35  15  44 SW10      30.14F WCI  27
$$


CITY           SKY/WX    TMP DP  RH WIND       PRES   REMARKS
Terre Haute    FAIR      22  11  62 S10       30.18F WCI  11
Evansville     FAIR      23  13  65 SW9       30.26F WCI  13
Indianapolis   FAIR      23  11  60 SW12      30.14F WCI  12
Lafayette      FAIR      24  14  65 SW10      30.11S WCI  14
Madison        FAIR      27  19  72 SW8       29.88F WCI  19
Milwaukee      FAIR      31  20  63 W14       29.89F WCI  21
$$






USA.gov is the U.S. government's official web portal to all federal, state and local government web resources and services.